Regional Weather Roundup
Issued by NWS

Home | Current Version | Previous Version | Graphics & Text | Print | Product List | Glossary On
Versions: 1 2 3 4 5 6 7 8 9 10 11 12 13 14 15 16 17 18 19 20 21 22 23 24 25 26 27 28 29 30 31 32 33 34 35 36 37 38 39 40 41 42 43 44 45 46 47 48 49 50
002
ASUS44 KLIX 301805
RWRLA
LOUISIANA WEATHER ROUNDUP
NATIONAL WEATHER SERVICE NEW ORLEANS LA
100 PM CDT TUE SEP 30 2014

NOTE: "FAIR" INDICATES FEW OR NO CLOUDS BELOW 12,000 FEET WITH NO
      SIGNIFICANT WEATHER AND/OR OBSTRUCTIONS TO VISIBILITY.
      SKY/WX - SKY CONDITION AND SIGNIFICANT WEATHER.
      TMP - AIR TEMPERATURE.    DP   - DEWPOINT TEMPERATURE.
      RH  - RELATIVE HUMIDITY.  PRES - PRESSURE.
      HX  - HEAT INDEX.         WCI  - WIND CHILL INDEX.

*  THESE STATIONS ARE NOT NWS OR FAA STATIONS AND ARE NOT UNDER
   NWS QUALITY CONTROL.

LAZ040-048-061>063-065-066-069-301900-
SOUTHEAST LOUISIANA

CITY           SKY/WX    TMP DP  RH WIND       PRES   REMARKS
N.O. AUDUBON     N/A     89  73  58 MISG        N/A  HX  96
6HR MIN TEMP:  75; 6HR MAX TEMP:  89;

N.O. INTL ARPT MOSUNNY   86  72  62 NE12      29.89F
6HR MIN TEMP:  75; 6HR MAX TEMP:  86;

N.O. LAKEFRONT PTSUNNY   82  72  71 NE9       29.90F
6HR MIN TEMP:  76; 6HR MAX TEMP:  82;

N.O. DOWNTOWN* FAIR      84  70  61 E6        29.90F
6HR MIN TEMP:  75; 6HR MAX TEMP:  84;

SLIDELL        MOSUNNY   86  70  58 NE5       29.89F
6HR MIN TEMP:  68; 6HR MAX TEMP:  87;

BATON ROUGE    PTSUNNY   86  69  56 SE3       29.89F
6HR MIN TEMP:  69; 6HR MAX TEMP:  89;

BOOTHVILLE     SUNNY     83  76  79 NE8       29.89F
6HR MIN TEMP:  77; 6HR MAX TEMP:  84; 6HR PCP:  0.01;

BELLE CHASSE   PTSUNNY   86  69  56 E6        29.88F
6HR MIN TEMP:  71; 6HR MAX TEMP:  86;

BOGALUSA*      FAIR      85  69  57 CALM      29.91F
6HR MIN TEMP:  68; 6HR MAX TEMP:  88;

GALLIANO*      NOT AVBL
NEW ROADS*     MOCLDY    87  71  58 E3        29.89F
6HR MIN TEMP:  68; 6HR MAX TEMP:  87;

GONZALES*      MOCLDY    85  72  65 E7        29.88F
6HR MIN TEMP:  69; 6HR MAX TEMP:  87;

HAMMOND*       SUNNY     88  66  48 S3        29.90F
HOUMA*         PTSUNNY  N/A N/A N/A SE5       29.88
PORT FOURCHON* PTCLDY    82  73  74 SE8       29.92F

$$

LAZ041-044-053-054-301900-
SOUTHWEST LOUISIANA

CITY           SKY/WX    TMP DP  RH WIND       PRES   REMARKS
LAKE CHARLES   MOSUNNY   87  71  58 SE7       29.87F
LAFAYETTE      MOSUNNY   86  70  58 CALM      29.88F
6HR MIN TEMP:  72; 6HR MAX TEMP:  88;

PATTERSON      PTSUNNY   84  73  70 SE3       29.91F
6HR MIN TEMP:  70; 6HR MAX TEMP:  88;

SALT POINT       N/A     88  74  63 VRB5      29.88F HX  96
6HR MIN TEMP:  75; 6HR MAX TEMP:  88; 6HR PCP:  0.01;

NEW IBERIA     MOSUNNY   89  71  55 VRB6      29.89F HX  95
6HR MIN TEMP:  71; 6HR MAX TEMP:  89;

CHENAULT AIRPK PTSUNNY   86  72  62 SE3       29.88F

$$

LAZ027-028-301900-
CENTRAL LOUISIANA

CITY           SKY/WX    TMP DP  RH WIND       PRES   REMARKS
FORT POLK      PTSUNNY   85  70  61 VRB3      29.88F
6HR MIN TEMP:  68; 6HR MAX TEMP:  87;

ALEXANDRIA INT MOSUNNY   86  67  52 CALM      29.87F
6HR MIN TEMP:  70; 6HR MAX TEMP:  89;

ALEXANDRIA     MOSUNNY   88  69  53 MISG      29.89F
6HR MIN TEMP:  68; 6HR MAX TEMP:  89;


$$

LAZ001-002-301900-
NORTHWEST LOUISIANA

CITY           SKY/WX    TMP DP  RH WIND       PRES   REMARKS
SHREVEPORT     PTSUNNY   89  66  46 SE9       29.87F
6HR MIN TEMP:  67; 6HR MAX TEMP:  89;

BARKSDALE AFB  SUNNY     88  65  45 SE6       29.88F
6HR MIN TEMP:  68; 6HR MAX TEMP:  89;

DTN SHREVEPORT SUNNY     86  66  51 S8        29.88F
6HR MIN TEMP:  67; 6HR MAX TEMP:  87;


$$

LAZ014-016-301900-
NORTHEAST LOUISIANA

CITY           SKY/WX    TMP DP  RH WIND       PRES   REMARKS
MONROE         SUNNY     88  66  48 E5        29.90F
6HR MIN TEMP:  66; 6HR MAX TEMP:  88;

TALLULAH       PTSUNNY   84  66  54 E6        29.90F
6HR MIN TEMP:  62; 6HR MAX TEMP:  88;


$$




USA.gov is the U.S. government's official web portal to all federal, state and local government web resources and services.